CZ-6A DEB

Satellite information

Favourite Embed

Satellite Type and Status

DEBRISIN ORBIT

Key statistics

Satellite CZ-6A DEB at a glance.

Uptime

969

Days in orbit

Revolutions

≈ 14.1

Per day

Orbit

SSO

Sun Synchronous Orbit

Inclination

98.7

Latest

Satellite identification and parameters

Extended collection of information and parameters for CZ-6A DEB.

Object identification

Identified? True

Debris? True

Object name: CZ-6A DEB

International designator: 2022-151GN

Object number (NORAD): 54462

Object ID (CCSDS): 54462

Country: PEOPLES REPUBLIC OF CHINA (PRC)

Current information (Y/N): Y

RCS size: SMALL

Orbital parameters

Period: 102.381 minutes

Inclination: 98.6856 deg

SMA: 7249.475 km

Apoapsis: 985.257 km

Periapsis: 757.422 km

RAAN: 155.482 deg

Eccentricy: 0.0157139

Argument of periapsis: 206.1957 deg

Mean anomaly: 153.1202 deg

Mean motion: 14.06510395 rev/day

Mean motion (dot): 0.00001919 rev/day2

B* drag term: 0.0010597 1/REarth

Two-line elements (TLE)

Creation date: July 5, 2025, 5:45 p.m.

Reference frame: TEME

Reference center: EARTH

Epoch: July 5, 2025, 12:23 p.m. UTC

TLE line 0: 0 CZ-6A DEB

TLE line 1: 1 54462U 22151GN 25186.51651062 .00001919 00000-0 10597-2 0 9994

TLE line 2: 2 54462 98.6856 155.4820 0157139 206.1957 153.1202 14.06510395134978

Live tracking on map

Real-time ground track for satellite CZ-6A DEB.

In-orbit conjunctions

A list of the most updated potential collisions computed for object CZ-6A DEB.

Target Orbit TCA Probability of collision Miss distance Type
COSMOS 1816 LEO 2025-04-26 01:27:14 0.0001406051 886.0 (m) PAYLOAD
COSMOS 1344 LEO 2024-11-19 21:43:34 0.0005097252 164.0 (m) PAYLOAD

Associated space launch

Chinese satellite reported for atmospheric/ocean/environmental/spatial parameter research purposes, details TBD.

CZ-6A DEB was lifted into orbit during the mission ‘Long March 6A | Yunhai 3’, on board a Long March 6A space rocket.

The launch took place on Nov. 11, 2022, 10:52 p.m. from Launch Complex 9A.

For more information about the launch, click the button.

Launch to space Long March 6A | Yunhai 3
Long March 6A | Yunhai 3

Agency: N/A

Status: Launch Successful

Launch date: Nov. 11, 2022, 10:52 p.m. UTC

Rocket: Long March 6A

Launch pad: Launch Complex 9A

Location: Taiyuan Satellite Launch Center, People's Republic of China

...

Latest news about this satellite

There are no fresh news available about this satellite. Check back as we update our databases every day.


Newsletter sign-up

Weekly statistics, charts and insights to help you stay on top of the space industry.